Volver al catálogo

COSMOS 2499 DEB

ActivoPO
NORAD 49944·DEBRIS·🇷🇺 Russia

Lanzado May 23, 2014 desde Plesetsk Cosmodrome

Loading…

Próximos Pases (próximas 24 horas)

TLE

ActualizadoSource: Space-Track

Época: Sep 12, 2026, 13:25 UTC

1 49944U 14028AB  26255.55955388  .00000375  00000-0  14206-2 0  9993
2 49944  82.4559 199.4693 0197966 172.6595 187.7483 12.82507783226224

Sigue COSMOS 2499 DEB en tiempo real con AllMySat

Download on the App Store